| time (UTC) | temp C | wind direction | speed KPH | gust KPH | rain 1hr cm | rain 24hr cm | rain mn cm | humidity % | barometer mb |
| 20260505063050 | 11 | 251 | 0.0 | 0.0 | 0.00 | 0.08 | 0.08 | 95 | 1010.3 |
| 20260505061550 | 11 | 251 | 0.0 | 0.0 | 0.00 | 0.08 | 0.08 | 95 | 1010.5 |
| 20260505060049 | 11 | 251 | 0.0 | 0.0 | 0.00 | 0.08 | 0.08 | 94 | 1010.7 |
| 20260505054549 | 11 | 251 | 0.0 | 0.0 | 0.00 | 0.08 | 0.08 | 94 | 1010.7 |
| 20260505053050 | 11 | 251 | 0.0 | 0.0 | 0.00 | 0.08 | 0.08 | 94 | 1010.7 |
| 20260505051548 | 11 | 251 | 0.0 | 0.0 | 0.00 | 0.08 | 0.08 | 94 | 1010.5 |
| 20260505041545 | 11 | 257 | 0.0 | 0.0 | 0.00 | 0.08 | 0.08 | 93 | 1010.4 |
| 20260505040045 | 11 | 283 | 0.0 | 0.0 | 0.00 | 0.08 | 0.08 | 93 | 1010.3 |
| 20260505034544 | 11 | 239 | 0.0 | 0.0 | 0.00 | 0.08 | 0.08 | 92 | 1010.1 |
| 20260505033105 | 11 | 260 | 0.0 | 0.0 | 0.00 | 0.08 | 0.08 | 92 | 1010.0 |
| 20260505031542 | 11 | 252 | 0.0 | 0.0 | 0.00 | 0.08 | 0.08 | 91 | 1009.9 |
| 20260505030043 | 11 | 204 | 0.0 | 0.0 | 0.00 | 0.08 | 0.08 | 91 | 1009.9 |
| 20260505024542 | 12 | 222 | 0.0 | 0.0 | 0.00 | 0.08 | 0.08 | 91 | 1010.0 |
| 20260505023049 | 12 | 239 | 0.0 | 0.0 | 0.00 | 0.08 | 0.08 | 90 | 1009.9 |
| 20260505021540 | 12 | 270 | 0.0 | 0.0 | 0.00 | 0.08 | 0.08 | 90 | 1010.0 |
| 20260505020046 | 12 | 306 | 0.0 | 0.0 | 0.00 | 0.08 | 0.08 | 89 | 1010.0 |
| 20260505014540 | 12 | 27 | 0.0 | 0.0 | 0.00 | 0.00 | 0.08 | 90 | 1010.0 |
| 20260505013039 | 12 | 276 | 0.0 | 0.0 | 0.00 | 0.08 | 0.08 | 89 | 1010.0 |
| 20260505011539 | 12 | 257 | 0.0 | 8.0 | 0.00 | 0.08 | 0.08 | 90 | 1010.0 |
| 20260505010042 | 12 | 298 | 0.0 | 0.0 | 0.00 | 0.08 | 0.08 | 90 | 1010.0 |
| 20260505004545 | 13 | 186 | 0.0 | 0.0 | 0.00 | 0.08 | 0.08 | 90 | 1009.8 |
| 20260505003039 | 13 | 219 | 0.0 | 0.0 | 0.00 | 0.08 | 0.08 | 90 | 1009.8 |
| 20260505001537 | 13 | 252 | 0.0 | 1.6 | 0.00 | 0.08 | 0.08 | 91 | 1009.7 |
| 20260505000037 | 13 | 226 | 0.0 | 0.0 | 0.00 | 0.08 | 0.08 | 91 | 1009.8 |
| 20260504234553 | 13 | 269 | 0.0 | 0.0 | 0.00 | 0.08 | 0.08 | 92 | 1009.8 |
| 20260504233036 | 13 | 228 | 0.0 | 0.0 | 0.00 | 0.08 | 0.08 | 92 | 1009.8 |
| 20260504231545 | 13 | 179 | 0.0 | 0.0 | 0.00 | 0.08 | 0.08 | 93 | 1009.8 |
| 20260504230034 | 13 | 284 | 0.0 | 0.0 | 0.00 | 0.08 | 0.08 | 94 | 1010.0 |
| 20260504224532 | 12 | 269 | 0.0 | 3.2 | 0.00 | 0.08 | 0.08 | 94 | 1010.2 |
| 20260504223032 | 12 | 49 | 0.0 | 0.0 | 0.00 | 0.08 | 0.08 | 93 | 1010.3 |
| 20260504221532 | 12 | 265 | 0.0 | 8.0 | 0.00 | 0.08 | 0.08 | 93 | 1010.4 |
| 20260504220031 | 12 | 197 | 1.6 | 8.0 | 0.00 | 0.08 | 0.08 | 94 | 1010.5 |
| 20260504214537 | 12 | 309 | 0.0 | 0.0 | 0.00 | 0.08 | 0.08 | 93 | 1010.7 |
| 20260504213031 | 13 | 326 | 0.0 | 0.0 | 0.00 | 0.08 | 0.08 | 94 | 1010.5 |
| 20260504211529 | 13 | 240 | 0.0 | 0.0 | 0.00 | 0.08 | 0.08 | 93 | 1010.5 |
| 20260504210028 | 13 | 207 | 0.0 | 3.2 | 0.00 | 0.08 | 0.08 | 95 | 1010.4 |
| 20260504204551 | 13 | 263 | 0.0 | 4.8 | 0.00 | 0.08 | 0.08 | 95 | 1010.4 |
| 20260504203028 | 13 | 63 | 0.0 | 0.0 | 0.03 | 0.08 | 0.08 | 96 | 1010.4 |
| 20260504201524 | 13 | 194 | 0.0 | 0.0 | 0.03 | 0.08 | 0.08 | 96 | 1010.3 |
| 20260504200028 | 12 | 200 | 0.0 | 0.0 | 0.03 | 0.08 | 0.08 | 96 | 1010.4 |
| 20260504194520 | 12 | 159 | 0.0 | 0.0 | 0.03 | 0.08 | 0.08 | 96 | 1010.5 |
| 20260504193022 | 11 | 239 | 0.0 | 0.0 | 0.00 | 0.05 | 0.05 | 96 | 1010.7 |
| 20260504191516 | 11 | 28 | 0.0 | 0.0 | 0.03 | 0.05 | 0.05 | 96 | 1010.7 |
| 20260504190015 | 11 | 275 | 0.0 | 0.0 | 0.03 | 0.05 | 0.05 | 96 | 1010.4 |
| 20260504184515 | 11 | 143 | 0.0 | 0.0 | 0.03 | 0.05 | 0.05 | 96 | 1010.8 |
| 20260504183014 | 11 | 171 | 0.0 | 1.6 | 0.03 | 0.05 | 0.05 | 96 | 1010.7 |
| 20260504181513 | 11 | 313 | 0.0 | 1.6 | 0.00 | 0.03 | 0.03 | 95 | 1010.9 |
| 20260504180011 | 11 | 113 | 0.0 | 0.0 | 0.00 | 0.03 | 0.03 | 96 | 1010.8 |
| 20260504174508 | 11 | 157 | 0.0 | 0.0 | 0.03 | 0.03 | 0.03 | 96 | 1010.5 |
| 20260504173007 | 11 | 155 | 0.0 | 0.0 | 0.03 | 0.03 | 0.03 | 96 | 1010.6 |
| 20260504171520 | 11 | 24 | 0.0 | 0.0 | 0.03 | 0.03 | 0.03 | 96 | 1010.6 |
| 20260504081530 | 8 | 32 | 0.0 | 0.0 | 0.00 | 0.00 | 0.00 | 93 | 1008.9 |